Regional Weather Roundup
Issued by NWS

Home | Current Version | Previous Version | Text Only | Print | Product List | Glossary On
Versions: 1 2 3 4 5 6 7 8 9 10 11 12 13 14 15 16 17 18 19 20 21 22 23 24 25 26 27 28 29 30 31 32 33 34 35 36 37 38 39 40 41 42 43 44 45 46 47 48 49 50
000
ASUS43 KDTX 241101
RWRMI
MICHIGAN HOURLY REGIONAL WEATHER ROUNDUP
NATIONAL WEATHER SERVICE DETROIT/PONTIAC MI
600 AM EST SAT FEB 24 2018

NOTE: "FAIR" INDICATES FEW OR NO CLOUDS BELOW 12,000 FEET WITH NO
SIGNIFICANT WEATHER AND/OR OBSTRUCTION TO VISIBILITY.

MIZ047>049-052>055-059>063-066>070-074>076-081>083-241200-
SOUTHEAST LOWER MICHIGAN

CITY           SKY/WX    TMP DP  RH WIND       PRES   REMARKS
ADRIAN         CLOUDY    36  31  82 E7        30.23F WCI  30
ALMA           CLOUDY    32  31  96 CALM      30.24S
ANN ARBOR      CLOUDY    36  31  82 NE6       30.22F WCI  31
BAD AXE        CLOUDY    32  30  93 NE8       30.25R WCI  25
CARO           CLOUDY    32  31  96 CALM      30.24R
DETROIT CITY   CLOUDY    37  30  75 N7        30.24S WCI  32
DETROIT        CLOUDY    38  31  76 N7        30.24S WCI  33
FLINT          CLOUDY    35  29  78 CALM      30.24S
GROSSE ILE     CLOUDY    37  32  82 NE5       30.23S WCI  34
HILLSDALE      CLOUDY    34  32  93 CALM      30.19F
HOWELL         CLOUDY    35  31  87 NE3       30.21F

CITY           SKY/WX    TMP DP  RH WIND       PRES   REMARKS
JACKSON        CLOUDY    35  31  85 NE6       30.21F WCI  30
LAMBERTVILLE   CLOUDY    37  33  85 CALM      30.23R
LANSING        CLOUDY    34  30  85 NE3       30.24F
LAPEER         CLOUDY    34  31  90 CALM      30.24S
MASON          CLOUDY    36  28  75 N7        30.22F WCI  30
MONROE         CLOUDY    37  32  81 N5        30.22S WCI  34
MT. CLEMENS    CLOUDY    35  35 100 CALM      30.22F
PONTIAC        CLOUDY    35  30  82 N3        30.21F
PORT HOPE        N/A     33  28  81 N13       30.24R WCI  24
PORT HURON     CLOUDY    36  30  80 CALM      30.25S
TRI CITIES     MOCLDY    33  28  81 CALM      30.25R
MIDLAND        FAIR      33  28  80 CALM      30.24R
TROY           CLOUDY    37  32  80 N3        30.25F
SAGINAW HB     CLOUDY    32  30  93 CALM      30.25R
$$
MIZ043>046-050>051-056>058-064>065-071>073-077>080-241200-
SOUTHWEST LOWER MICHIGAN

CITY           SKY/WX    TMP DP  RH WIND       PRES   REMARKS
BATTLE CREEK   CLOUDY    35  29  78 NE3       30.22S
BENTON HARBOR  CLOUDY    35  29  78 NE3       30.23S
BIG RAPIDS     CLOUDY    32  25  74 CALM      30.22R
COLDWATER      CLOUDY    36  34  94 NE6       30.21S WCI  31
HOLLAND        FAIR      33  27  78 CALM      30.24S
GRAND RAPIDS   CLOUDY    33  28  81 NE5       30.23S WCI  29
IONIA          CLOUDY    33  29  87 CALM      30.23S
KALAMAZOO      CLOUDY    36  29  75 NE3       30.23R
LUDINGTON      CLOUDY    31  24  76 CALM      30.24R
MARSHALL       CLOUDY    34  31  89 CALM      30.21S
MOUNT PLEASANT MOCLDY    33  27  79 CALM      30.23R
MUSKEGON       MOCLDY    31  24  75 CALM      30.25R
SOUTH HAVEN    CLOUDY    33  29  85 CALM      30.24R
$$
MIZ016>042-241200-
NORTHERN LOWER MICHIGAN

CITY           SKY/WX    TMP DP  RH WIND       PRES   REMARKS
ALPENA         CLOUDY    31  23  72 NW9       30.26R WCI  23
BEAVER ISLAND  CLOUDY    32  24  72 W3        30.25R
BELLAIRE       CLOUDY    31  27  84 CALM      30.26S
CADILLAC       CLOUDY    30  23  76 N6        30.20S WCI  24
CHARLEVOIX     CLOUDY    32  23  71 CALM      30.28R
FRANKFORT      CLOUDY    33  26  73 CALM      30.24S
GAYLORD        CLOUDY    28  22  78 CALM      30.22R
GRAYLING       CLOUDY    29  23  79 N7        30.22R WCI  22
HARBOR SPRINGS CLOUDY    30  22  72 W3        30.25R
HOUGHTON LAKE  MOCLDY    30  21  69 NW6       30.22S WCI  24
MANISTEE       CLOUDY    33  24  69 NE5       30.24F WCI  29
OSCODA         CLOUDY    29  22  75 N6        30.24S WCI  23
PELLSTON       CLOUDY    31  23  72 NW6       30.25R WCI  25
ROGERS CITY    CLOUDY    31  23  72 NW5       30.26S WCI  26
TRAVERSE CITY  CLOUDY    32  26  78 CALM      30.24F
$$
MIZ007>008-015-241200-
EASTERN UPPER MICHIGAN

CITY           SKY/WX    TMP DP  RH WIND       PRES   REMARKS
KINROSS        CLOUDY    28  23  81 W5        30.22R WCI  23
MACKINAC ISLAN CLOUDY    30  23  75 W3        30.23R
NEWBERRY       CLOUDY    29  20  71 W13       30.21R WCI  18
S. S. MARIE    CLOUDY    31  24  75 W8        30.20R WCI  23
MUNISING         N/A     29  25  85 CALM      30.21S
$$
MIZ004>006-011>014-085-241200-
CENTRAL UPPER MICHIGAN

CITY           SKY/WX    TMP DP  RH WIND       PRES   REMARKS
MANISTIQUE     CLOUDY    30  24  77 CALM      30.23R
ESCANABA       CLOUDY    29  23  78 SW5       30.24S WCI  24
MENOMINEE      CLOUDY    30  25  81 CALM      30.25F
SAWYER-GWINN   CLOUDY    27  20  76 W3        30.19R
$$
MIZ001>003-009>011-084-241200-
WESTERN UPPER MICHIGAN

CITY           SKY/WX    TMP DP  RH WIND       PRES   REMARKS
IRON MOUNTAIN  CLOUDY    23  18  81 CALM      30.20R
HOUGHTON       FAIR      17  13  84 W6        30.16S WCI   9
COPPER HARBOR    N/A     28  21  75 W3        30.18S
IRONWOOD       FOG        6   4  91 CALM      30.18F VSB 1/4
$$

ABBREVIATIONS USED IN REMARKS
   TC - TEMPERATURE IN CELSIUS
  WCI - WIND CHILL INDEX
   HX - HEAT INDEX
  VSB - VISIBILITY





USA.gov is the U.S. government's official web portal to all federal, state and local government web resources and services.